Time,TemperatureF,DewpointF,PressureIn,WindDirection,WindDirectionDegrees,WindSpeedMPH,WindSpeedGustMPH,Humidity,HourlyPrecipIn,Conditions,Clouds,dailyrainin,SoftwareType,DateUTC
2013-02-07 00:00:00,9.9,6.3,30.32,NW,326,0.0,0.0,85,0.00,SCT,,0.00,WeatherDisplay:10.37,2013-02-07 05:00:00,
2013-02-07 00:02:00,9.9,6.3,30.32,NW,326,0.0,0.0,85,0.00,CLR,,0.00,WeatherDisplay:10.37,2013-02-07 05:02:00,
2013-02-07 00:07:00,9.9,6.3,30.32,NW,326,0.0,0.0,85,0.00,CLR,,0.00,WeatherDisplay:10.37,2013-02-07 05:07:00,
2013-02-07 00:12:00,9.8,6.5,30.33,NW,326,0.0,0.0,86,0.00,CLR,,0.00,WeatherDisplay:10.37,2013-02-07 05:12:00,
2013-02-07 00:17:00,9.7,6.4,30.33,NW,326,0.0,0.0,86,0.00,CLR,,0.00,WeatherDisplay:10.37,2013-02-07 05:17:00,
2013-02-07 00:22:00,9.6,6.3,30.33,NW,326,0.0,0.0,86,0.00,CLR,,0.00,WeatherDisplay:10.37,2013-02-07 05:22:00,
2013-02-07 00:27:00,9.4,6.1,30.33,NW,326,0.0,0.0,86,0.00,CLR,,0.00,WeatherDisplay:10.37,2013-02-07 05:27:00,
2013-02-07 00:32:00,9.2,5.9,30.33,NW,326,0.0,0.0,86,0.00,CLR,,0.00,WeatherDisplay:10.37,2013-02-07 05:32:00,
2013-02-07 00:37:00,9.0,5.7,30.33,NW,326,0.0,0.0,86,0.00,CLR,,0.00,WeatherDisplay:10.37,2013-02-07 05:37:00,
2013-02-07 00:42:00,8.8,5.5,30.33,NW,326,0.0,0.0,86,0.00,CLR,,0.00,WeatherDisplay:10.37,2013-02-07 05:42:00,
2013-02-07 00:47:00,8.6,5.3,30.33,NW,326,0.0,0.0,86,0.00,CLR,,0.00,WeatherDisplay:10.37,2013-02-07 05:47:00,
2013-02-07 00:52:00,8.4,5.1,30.33,NW,326,0.0,0.0,86,0.00,CLR,,0.00,WeatherDisplay:10.37,2013-02-07 05:52:00,
2013-02-07 00:57:00,8.4,5.1,30.34,NW,326,0.0,0.0,86,0.00,CLR,,0.00,WeatherDisplay:10.37,2013-02-07 05:57:00,
2013-02-07 01:02:00,8.5,5.4,30.34,NW,326,0.0,0.0,87,0.00,BKN,,0.00,WeatherDisplay:10.37,2013-02-07 06:02:00,
2013-02-07 01:07:00,8.7,5.6,30.34,NW,326,0.0,0.0,87,0.00,BKN,,0.00,WeatherDisplay:10.37,2013-02-07 06:07:00,
2013-02-07 01:12:00,8.9,5.8,30.35,NW,326,0.0,0.0,87,0.00,BKN,,0.00,WeatherDisplay:10.37,2013-02-07 06:12:00,
2013-02-07 01:17:00,9.1,6.0,30.35,NW,326,0.0,0.0,87,0.00,BKN,,0.00,WeatherDisplay:10.37,2013-02-07 06:17:00,
2013-02-07 01:22:00,9.3,6.5,30.35,NW,326,0.0,0.0,88,0.00,BKN,,0.00,WeatherDisplay:10.37,2013-02-07 06:22:00,
2013-02-07 01:27:00,9.7,6.9,30.34,NW,326,0.0,0.0,88,0.00,BKN,,0.00,WeatherDisplay:10.37,2013-02-07 06:27:00,
2013-02-07 01:32:00,10.1,7.5,30.34,NW,326,0.0,0.0,89,0.00,BKN,,0.00,WeatherDisplay:10.37,2013-02-07 06:32:00,
2013-02-07 01:38:00,10.7,8.1,30.34,NW,326,0.0,0.0,89,0.00,BKN,,0.00,WeatherDisplay:10.37,2013-02-07 06:38:00,
2013-02-07 01:43:00,11.1,8.5,30.35,NW,326,0.0,0.0,89,0.00,BKN,,0.00,WeatherDisplay:10.37,2013-02-07 06:43:00,
2013-02-07 01:48:00,11.5,8.9,30.35,NW,326,0.0,0.0,89,0.00,BKN,,0.00,WeatherDisplay:10.37,2013-02-07 06:48:00,
2013-02-07 01:53:00,11.8,9.2,30.35,NW,326,0.0,0.0,89,0.00,BKN,,0.00,WeatherDisplay:10.37,2013-02-07 06:53:00,
2013-02-07 01:58:00,12.1,9.5,30.34,NW,326,0.0,0.0,89,0.00,BKN,,0.00,WeatherDisplay:10.37,2013-02-07 06:58:00,
2013-02-07 02:03:00,12.2,9.6,30.35,NW,326,0.0,0.0,89,0.00,OVC,,0.00,WeatherDisplay:10.37,2013-02-07 07:03:00,
2013-02-07 02:08:00,12.4,9.5,30.35,NW,326,0.0,0.0,88,0.00,OVC,,0.00,WeatherDisplay:10.37,2013-02-07 07:08:00,
2013-02-07 02:13:00,12.5,9.9,30.34,NW,326,0.0,0.0,89,0.00,OVC,,0.00,WeatherDisplay:10.37,2013-02-07 07:13:00,
2013-02-07 02:18:00,12.6,9.7,30.34,NW,326,0.0,0.0,88,0.00,OVC,,0.00,WeatherDisplay:10.37,2013-02-07 07:18:00,
2013-02-07 02:23:00,12.6,9.7,30.35,NW,326,0.0,0.0,88,0.00,OVC,,0.00,WeatherDisplay:10.37,2013-02-07 07:23:00,
2013-02-07 02:28:00,12.7,9.8,30.35,NW,326,0.1,0.0,88,0.00,OVC,,0.00,WeatherDisplay:10.37,2013-02-07 07:28:00,
2013-02-07 02:33:00,12.8,9.9,30.35,NW,326,0.0,0.0,88,0.00,OVC,,0.00,WeatherDisplay:10.37,2013-02-07 07:33:00,
2013-02-07 02:38:00,13.1,10.5,30.35,NW,326,0.0,0.0,89,0.00,OVC,,0.00,WeatherDisplay:10.37,2013-02-07 07:38:00,
2013-02-07 02:43:00,13.4,10.8,30.35,NW,326,0.0,0.0,89,0.00,OVC,,0.00,WeatherDisplay:10.37,2013-02-07 07:43:00,
2013-02-07 02:48:00,13.7,11.1,30.35,NW,326,0.0,2.3,89,0.00,OVC,,0.00,WeatherDisplay:10.37,2013-02-07 07:48:00,
2013-02-07 02:53:00,14.0,11.4,30.35,NW,326,0.0,0.0,89,0.00,OVC,,0.00,WeatherDisplay:10.37,2013-02-07 07:53:00,
2013-02-07 02:58:00,14.2,11.5,30.35,NW,326,0.0,0.0,89,0.00,OVC,,0.00,WeatherDisplay:10.37,2013-02-07 07:58:00,
2013-02-07 03:03:00,14.4,11.7,30.35,NW,326,0.0,2.0,89,0.00,OVC,,0.00,WeatherDisplay:10.37,2013-02-07 08:03:00,
2013-02-07 03:08:00,14.8,12.1,30.35,NW,326,0.0,0.0,89,0.00,OVC,,0.00,WeatherDisplay:10.37,2013-02-07 08:08:00,
2013-02-07 03:13:00,15.2,12.8,30.35,NNW,327,0.0,0.0,90,0.00,OVC,,0.00,WeatherDisplay:10.37,2013-02-07 08:13:00,
2013-02-07 03:18:00,15.7,13.0,30.36,NNW,340,0.0,0.0,89,0.00,OVC,,0.00,WeatherDisplay:10.37,2013-02-07 08:18:00,
2013-02-07 03:23:00,16.1,13.4,30.36,North,2,0.0,0.0,89,0.00,OVC,,0.00,WeatherDisplay:10.37,2013-02-07 08:23:00,
2013-02-07 03:28:00,16.3,13.6,30.35,North,5,0.2,0.0,89,0.00,OVC,,0.00,WeatherDisplay:10.37,2013-02-07 08:28:00,
2013-02-07 03:33:00,16.5,13.8,30.35,NNE,14,0.0,3.0,89,0.00,OVC,,0.00,WeatherDisplay:10.37,2013-02-07 08:33:00,
2013-02-07 03:38:00,16.7,13.8,30.35,NNE,31,0.0,0.0,88,0.00,OVC,,0.00,WeatherDisplay:10.37,2013-02-07 08:38:00,
2013-02-07 03:43:00,16.9,14.0,30.35,NNE,32,0.0,0.0,88,0.00,OVC,,0.00,WeatherDisplay:10.37,2013-02-07 08:43:00,
2013-02-07 03:48:00,17.0,14.0,30.35,NNE,32,0.0,0.0,88,0.00,OVC,,0.00,WeatherDisplay:10.37,2013-02-07 08:48:00,
2013-02-07 03:53:00,17.0,13.8,30.35,NNE,32,0.0,0.0,87,0.00,OVC,,0.00,WeatherDisplay:10.37,2013-02-07 08:53:00,
2013-02-07 03:58:00,17.2,14.0,30.35,NNE,32,0.2,1.1,87,0.00,OVC,,0.00,WeatherDisplay:10.37,2013-02-07 08:58:00,
2013-02-07 04:03:00,17.2,13.7,30.35,NNE,32,0.0,0.0,86,0.00,BKN,,0.00,WeatherDisplay:10.37,2013-02-07 09:03:00,
2013-02-07 04:08:00,17.2,13.7,30.35,NNE,32,0.0,0.0,86,0.00,BKN,,0.00,WeatherDisplay:10.37,2013-02-07 09:08:00,
2013-02-07 04:13:00,17.3,13.8,30.35,NNE,32,0.0,0.0,86,0.00,BKN,,0.00,WeatherDisplay:10.37,2013-02-07 09:13:00,
2013-02-07 04:18:00,17.3,13.8,30.35,NNE,32,1.0,2.0,86,0.00,BKN,,0.00,WeatherDisplay:10.37,2013-02-07 09:18:00,
2013-02-07 04:23:00,17.3,13.8,30.35,NNE,32,0.0,0.0,86,0.00,BKN,,0.00,WeatherDisplay:10.37,2013-02-07 09:23:00,
2013-02-07 04:28:00,17.3,13.8,30.35,NNE,32,0.0,0.0,86,0.00,BKN,,0.00,WeatherDisplay:10.37,2013-02-07 09:28:00,
2013-02-07 04:33:00,17.4,13.9,30.35,NNE,32,0.2,1.0,86,0.00,BKN,,0.00,WeatherDisplay:10.37,2013-02-07 09:33:00,
2013-02-07 04:38:00,17.4,13.7,30.35,NNE,32,0.0,0.0,85,0.00,BKN,,0.00,WeatherDisplay:10.37,2013-02-07 09:38:00,
2013-02-07 04:43:00,17.4,13.7,30.35,NNE,32,0.0,2.0,85,0.00,BKN,,0.00,WeatherDisplay:10.37,2013-02-07 09:43:00,
2013-02-07 04:48:00,17.4,13.7,30.36,NNE,32,0.0,0.0,85,0.00,BKN,,0.00,WeatherDisplay:10.37,2013-02-07 09:48:00,
2013-02-07 04:53:00,17.5,13.8,30.36,NNE,32,0.0,0.0,85,0.00,BKN,,0.00,WeatherDisplay:10.37,2013-02-07 09:53:00,
2013-02-07 04:58:00,17.5,13.8,30.36,NNE,32,0.0,0.0,85,0.00,BKN,,0.00,WeatherDisplay:10.37,2013-02-07 09:58:00,
2013-02-07 05:03:00,17.5,13.8,30.36,NNE,32,0.0,3.5,85,0.00,OVC,,0.00,WeatherDisplay:10.37,2013-02-07 10:03:00,
2013-02-07 05:08:00,17.6,13.9,30.36,NNE,32,0.0,0.0,85,0.00,OVC,,0.00,WeatherDisplay:10.37,2013-02-07 10:08:00,
2013-02-07 05:13:00,17.6,13.9,30.36,NNE,32,0.0,1.1,85,0.00,OVC,,0.00,WeatherDisplay:10.37,2013-02-07 10:13:00,
2013-02-07 05:18:00,17.7,14.0,30.36,NNE,32,0.0,2.3,85,0.00,OVC,,0.00,WeatherDisplay:10.37,2013-02-07 10:18:00,
2013-02-07 05:23:00,17.6,13.6,30.36,NNE,32,0.0,0.0,84,0.00,OVC,,0.00,WeatherDisplay:10.37,2013-02-07 10:23:00,
2013-02-07 05:28:00,17.6,13.6,30.36,NNE,32,0.0,0.0,84,0.00,OVC,,0.00,WeatherDisplay:10.37,2013-02-07 10:28:00,
2013-02-07 05:33:00,17.5,13.5,30.36,NNE,32,0.0,0.0,84,0.00,OVC,,0.00,WeatherDisplay:10.37,2013-02-07 10:33:00,
2013-02-07 05:38:00,17.3,13.3,30.36,NNE,32,0.0,0.0,84,0.00,OVC,,0.00,WeatherDisplay:10.37,2013-02-07 10:38:00,
2013-02-07 05:43:00,17.2,15.3,30.36,NNE,32,0.0,0.0,92,0.00,OVC,,0.00,WeatherDisplay:10.37,2013-02-07 10:43:00,
2013-02-07 05:48:00,17.0,13.0,30.36,NNE,32,0.0,0.0,84,0.00,OVC,,0.00,WeatherDisplay:10.37,2013-02-07 10:48:00,
2013-02-07 05:53:00,16.9,12.9,30.35,NNE,32,0.0,0.0,84,0.00,OVC,,0.00,WeatherDisplay:10.37,2013-02-07 10:53:00,
2013-02-07 05:58:00,16.8,12.8,30.35,NNE,32,0.0,0.0,84,0.00,OVC,,0.00,WeatherDisplay:10.37,2013-02-07 10:58:00,
2013-02-07 06:03:00,16.8,13.1,30.36,NNE,32,0.0,0.0,85,0.00,OVC,,0.00,WeatherDisplay:10.37,2013-02-07 11:03:00,
2013-02-07 06:08:00,16.8,13.1,30.35,NNE,32,0.0,0.0,85,0.00,OVC,,0.00,WeatherDisplay:10.37,2013-02-07 11:08:00,
2013-02-07 06:13:00,16.9,13.2,30.35,NNE,32,0.2,1.1,85,0.00,OVC,,0.00,WeatherDisplay:10.37,2013-02-07 11:13:00,
2013-02-07 06:18:00,17.0,13.3,30.35,NNE,32,0.0,0.0,85,0.00,OVC,,0.00,WeatherDisplay:10.37,2013-02-07 11:18:00,
2013-02-07 06:23:00,17.1,13.4,30.34,NNE,32,0.0,0.0,85,0.00,OVC,,0.00,WeatherDisplay:10.37,2013-02-07 11:23:00,
2013-02-07 06:28:00,17.0,13.3,30.35,NNE,32,0.9,3.5,85,0.00,OVC,,0.00,WeatherDisplay:10.37,2013-02-07 11:28:00,
2013-02-07 06:33:00,17.1,13.4,30.34,NNE,32,0.3,2.3,85,0.00,OVC,,0.00,WeatherDisplay:10.37,2013-02-07 11:33:00,
2013-02-07 06:38:00,17.1,13.4,30.35,NNE,32,0.0,0.0,85,0.00,OVC,,0.00,WeatherDisplay:10.37,2013-02-07 11:38:00,
2013-02-07 06:43:00,17.1,13.4,30.35,NNE,32,0.0,0.0,85,0.00,OVC,,0.00,WeatherDisplay:10.37,2013-02-07 11:43:00,
2013-02-07 06:48:00,17.0,13.3,30.35,NNE,32,0.2,2.3,85,0.00,OVC,,0.00,WeatherDisplay:10.37,2013-02-07 11:48:00,
2013-02-07 06:53:00,17.0,13.3,30.35,NNE,33,0.0,0.0,85,0.00,OVC,,0.00,WeatherDisplay:10.37,2013-02-07 11:53:00,
2013-02-07 06:58:00,17.1,13.4,30.35,NE,34,0.0,2.3,85,0.00,OVC,,0.00,WeatherDisplay:10.37,2013-02-07 11:58:00,
2013-02-07 07:03:00,17.2,13.5,30.35,NE,34,0.0,0.0,85,0.00,BKN,,0.00,WeatherDisplay:10.37,2013-02-07 12:03:00,
2013-02-07 07:08:00,17.3,13.6,30.35,NE,34,0.0,0.0,85,0.00,BKN,,0.00,WeatherDisplay:10.37,2013-02-07 12:08:00,
2013-02-07 07:13:00,17.5,13.8,30.36,NE,34,0.0,0.0,85,0.00,BKN,,0.00,WeatherDisplay:10.37,2013-02-07 12:13:00,
2013-02-07 07:18:00,17.7,14.0,30.36,NNE,33,0.8,2.3,85,0.00,BKN,,0.00,WeatherDisplay:10.37,2013-02-07 12:18:00,
2013-02-07 07:23:00,18.0,14.3,30.36,NE,34,0.0,0.0,85,0.00,BKN,,0.00,WeatherDisplay:10.37,2013-02-07 12:23:00,
2013-02-07 07:28:00,18.2,14.4,30.36,NNE,33,0.0,0.0,85,0.00,BKN,,0.00,WeatherDisplay:10.37,2013-02-07 12:28:00,
2013-02-07 07:33:00,18.3,14.3,30.36,NE,36,0.2,2.3,84,0.00,BKN,,0.00,WeatherDisplay:10.37,2013-02-07 12:33:00,
2013-02-07 07:38:00,18.5,14.5,30.36,NE,36,0.3,2.3,84,0.00,BKN,,0.00,WeatherDisplay:10.37,2013-02-07 12:38:00,
2013-02-07 07:43:00,18.6,14.3,30.37,NE,36,0.0,0.0,83,0.00,BKN,,0.00,WeatherDisplay:10.37,2013-02-07 12:43:00,
2013-02-07 07:48:00,18.7,14.4,30.37,NE,37,0.5,4.0,83,0.00,BKN,,0.00,WeatherDisplay:10.37,2013-02-07 12:48:00,
2013-02-07 07:53:00,18.8,14.2,30.37,NE,39,0.3,2.3,82,0.00,BKN,,0.00,WeatherDisplay:10.37,2013-02-07 12:53:00,
2013-02-07 07:58:00,19.0,14.4,30.37,NE,42,1.0,3.5,82,0.00,BKN,,0.00,WeatherDisplay:10.37,2013-02-07 12:58:00,
2013-02-07 08:03:00,19.1,14.2,30.37,ENE,61,1.3,3.5,81,0.00,BKN,,0.00,WeatherDisplay:10.37,2013-02-07 13:03:00,
2013-02-07 08:08:00,19.3,14.4,30.37,ENE,72,1.3,3.5,81,0.00,BKN,,0.00,WeatherDisplay:10.37,2013-02-07 13:08:00,
2013-02-07 08:13:00,19.5,14.6,30.36,NE,55,2.1,4.6,81,0.00,BKN,,0.00,WeatherDisplay:10.37,2013-02-07 13:13:00,
2013-02-07 08:18:00,19.7,14.5,30.36,ENE,78,2.8,4.6,80,0.00,BKN,,0.00,WeatherDisplay:10.37,2013-02-07 13:18:00,
2013-02-07 08:23:00,19.7,14.5,30.37,East,84,0.8,3.0,80,0.00,BKN,,0.00,WeatherDisplay:10.37,2013-02-07 13:23:00,
2013-02-07 08:28:00,19.7,14.5,30.37,East,84,0.4,2.3,80,0.00,BKN,,0.00,WeatherDisplay:10.37,2013-02-07 13:28:00,
2013-02-07 08:33:00,20.0,14.8,30.37,ENE,74,1.4,3.5,80,0.00,BKN,,0.00,WeatherDisplay:10.37,2013-02-07 13:33:00,
2013-02-07 08:38:00,20.1,14.9,30.37,East,88,0.6,3.5,80,0.00,BKN,,0.00,WeatherDisplay:10.37,2013-02-07 13:38:00,
2013-02-07 08:43:00,20.4,14.9,30.37,East,86,1.4,3.5,79,0.00,BKN,,0.00,WeatherDisplay:10.37,2013-02-07 13:43:00,
2013-02-07 08:48:00,20.6,15.1,30.37,ESE,109,0.2,2.3,79,0.00,BKN,,0.00,WeatherDisplay:10.37,2013-02-07 13:48:00,
2013-02-07 08:53:00,20.7,15.2,30.37,ENE,69,2.4,4.6,79,0.00,BKN,,0.00,WeatherDisplay:10.37,2013-02-07 13:53:00,
2013-02-07 08:58:00,20.8,15.0,30.37,ENE,72,1.4,3.5,78,0.00,BKN,,0.00,WeatherDisplay:10.37,2013-02-07 13:58:00,
2013-02-07 09:03:00,21.0,15.2,30.37,East,82,1.6,4.6,78,0.00,OVC,,0.00,WeatherDisplay:10.37,2013-02-07 14:03:00,
2013-02-07 09:08:00,21.2,15.4,30.36,ENE,78,0.5,3.5,78,0.00,OVC,,0.00,WeatherDisplay:10.37,2013-02-07 14:08:00,
2013-02-07 09:13:00,21.5,15.7,30.37,ENE,77,1.7,4.6,78,0.00,OVC,,0.00,WeatherDisplay:10.37,2013-02-07 14:13:00,
2013-02-07 09:18:00,21.7,15.9,30.36,East,101,0.2,1.1,78,0.00,OVC,,0.00,WeatherDisplay:10.37,2013-02-07 14:18:00,
2013-02-07 09:23:00,21.9,16.1,30.36,ENE,73,1.5,3.5,78,0.00,OVC,,0.00,WeatherDisplay:10.37,2013-02-07 14:23:00,
2013-02-07 09:29:00,22.1,16.0,30.36,East,87,0.0,1.1,77,0.00,OVC,,0.00,WeatherDisplay:10.37,2013-02-07 14:29:00,
2013-02-07 09:34:00,22.4,16.0,30.36,East,88,2.4,4.6,76,0.00,OVC,,0.00,WeatherDisplay:10.37,2013-02-07 14:34:00,
2013-02-07 09:39:00,22.6,16.2,30.36,ENE,57,1.0,6.9,76,0.00,OVC,,0.00,WeatherDisplay:10.37,2013-02-07 14:39:00,
2013-02-07 09:44:00,22.9,16.5,30.35,ENE,69,2.7,6.9,76,0.00,OVC,,0.00,WeatherDisplay:10.37,2013-02-07 14:44:00,
2013-02-07 09:49:00,23.3,16.5,30.35,ESE,103,5.8,5.8,75,0.00,OVC,,0.00,WeatherDisplay:10.37,2013-02-07 14:49:00,
2013-02-07 09:54:00,23.7,16.6,30.35,ESE,116,0.9,3.5,74,0.00,OVC,,0.00,WeatherDisplay:10.37,2013-02-07 14:54:00,
2013-02-07 09:59:00,24.3,17.2,30.35,East,89,1.6,8.1,74,0.00,OVC,,0.00,WeatherDisplay:10.37,2013-02-07 14:59:00,
2013-02-07 10:04:00,24.7,17.3,30.35,SE,125,2.6,4.6,73,0.00,OVC,,0.00,WeatherDisplay:10.37,2013-02-07 15:04:00,
2013-02-07 10:09:00,24.9,16.8,30.35,ENE,78,1.1,6.9,71,0.00,OVC,,0.00,WeatherDisplay:10.37,2013-02-07 15:09:00,
2013-02-07 10:14:00,25.2,17.1,30.34,East,82,1.5,8.1,71,0.00,OVC,,0.00,WeatherDisplay:10.37,2013-02-07 15:14:00,
2013-02-07 10:19:00,25.5,17.1,30.34,East,80,5.2,8.1,70,0.00,OVC,,0.00,WeatherDisplay:10.37,2013-02-07 15:19:00,
2013-02-07 10:24:00,25.8,17.0,30.34,ENE,69,2.5,4.6,69,0.00,OVC,,0.00,WeatherDisplay:10.37,2013-02-07 15:24:00,
2013-02-07 10:29:00,25.8,17.0,30.34,East,80,0.8,5.8,69,0.00,OVC,,0.00,WeatherDisplay:10.37,2013-02-07 15:29:00,
2013-02-07 10:34:00,26.0,17.2,30.34,East,99,1.6,4.6,69,0.00,OVC,,0.00,WeatherDisplay:10.37,2013-02-07 15:34:00,
2013-02-07 10:39:00,26.2,17.1,30.34,ENE,72,2.4,6.9,68,0.00,OVC,,0.00,WeatherDisplay:10.37,2013-02-07 15:39:00,
2013-02-07 10:44:00,26.3,17.2,30.33,NE,42,5.1,8.1,68,0.00,OVC,,0.00,WeatherDisplay:10.37,2013-02-07 15:44:00,
2013-02-07 10:49:00,26.1,16.6,30.33,ENE,60,6.7,9.2,67,0.00,OVC,,0.00,WeatherDisplay:10.37,2013-02-07 15:49:00,
2013-02-07 10:54:00,26.0,16.9,30.34,NE,46,5.1,6.0,68,0.00,OVC,,0.00,WeatherDisplay:10.37,2013-02-07 15:54:00,
2013-02-07 10:59:00,25.9,16.8,30.33,ENE,59,3.0,6.9,68,0.00,OVC,,0.00,WeatherDisplay:10.37,2013-02-07 15:59:00,
2013-02-07 11:04:00,25.9,17.1,30.34,ENE,75,3.4,5.8,69,0.00,BKN,,0.00,WeatherDisplay:10.37,2013-02-07 16:04:00,
2013-02-07 11:09:00,26.0,16.9,30.33,NE,49,6.5,6.9,68,0.00,BKN,,0.00,WeatherDisplay:10.37,2013-02-07 16:09:00,
2013-02-07 11:14:00,26.1,17.0,30.33,NE,54,5.0,12.0,68,0.00,BKN,,0.00,WeatherDisplay:10.37,2013-02-07 16:14:00,
2013-02-07 11:19:00,26.2,17.1,30.33,East,97,4.8,4.8,68,0.00,BKN,,0.00,WeatherDisplay:10.37,2013-02-07 16:19:00,
2013-02-07 11:24:00,26.4,17.3,30.33,ENE,78,0.0,3.0,68,0.00,BKN,,0.00,WeatherDisplay:10.37,2013-02-07 16:24:00,
2013-02-07 11:29:00,26.9,17.8,30.33,ENE,66,1.0,4.0,68,0.00,BKN,,0.00,WeatherDisplay:10.37,2013-02-07 16:29:00,
2013-02-07 11:34:00,27.4,17.9,30.32,ENE,73,5.2,9.2,67,0.00,BKN,,0.00,WeatherDisplay:10.37,2013-02-07 16:34:00,
2013-02-07 11:39:00,27.4,17.5,30.32,East,86,5.7,6.9,66,0.00,BKN,,0.00,WeatherDisplay:10.37,2013-02-07 16:39:00,
2013-02-07 11:44:00,27.5,17.6,30.31,ENE,68,7.0,9.0,66,0.00,BKN,,0.00,WeatherDisplay:10.37,2013-02-07 16:44:00,
2013-02-07 11:49:00,27.5,17.6,30.31,NE,52,2.8,4.0,66,0.00,BKN,,0.00,WeatherDisplay:10.37,2013-02-07 16:49:00,
2013-02-07 11:54:00,27.6,17.7,30.31,ENE,72,3.0,5.0,66,0.00,BKN,,0.00,WeatherDisplay:10.37,2013-02-07 16:54:00,
2013-02-07 11:59:00,27.7,17.8,30.31,ENE,64,5.3,6.9,66,0.00,BKN,,0.00,WeatherDisplay:10.37,2013-02-07 16:59:00,
2013-02-07 12:04:00,27.7,17.5,30.30,ENE,64,3.2,8.1,65,0.00,OVC,,0.00,WeatherDisplay:10.37,2013-02-07 17:04:00,
2013-02-07 12:09:00,27.9,18.0,30.30,East,93,4.2,9.2,66,0.00,OVC,,0.00,WeatherDisplay:10.37,2013-02-07 17:09:00,
2013-02-07 12:14:00,28.1,17.8,30.30,East,80,3.0,10.0,65,0.00,OVC,,0.00,WeatherDisplay:10.37,2013-02-07 17:14:00,
2013-02-07 12:19:00,28.1,17.8,30.29,ENE,61,3.7,5.0,65,0.00,OVC,,0.00,WeatherDisplay:10.37,2013-02-07 17:19:00,
2013-02-07 12:24:00,28.2,17.9,30.29,ENE,75,5.0,6.0,65,0.00,OVC,,0.00,WeatherDisplay:10.37,2013-02-07 17:24:00,
2013-02-07 12:29:00,28.3,18.0,30.28,ENE,74,6.2,10.4,65,0.00,OVC,,0.00,WeatherDisplay:10.37,2013-02-07 17:29:00,
2013-02-07 12:34:00,28.4,18.5,30.28,NE,42,3.0,7.0,66,0.00,OVC,,0.00,WeatherDisplay:10.37,2013-02-07 17:34:00,
2013-02-07 12:39:00,28.4,18.1,30.28,NE,55,6.0,9.0,65,0.00,OVC,,0.00,WeatherDisplay:10.37,2013-02-07 17:39:00,
2013-02-07 12:44:00,28.6,18.3,30.28,ENE,68,3.4,4.6,65,0.00,OVC,,0.00,WeatherDisplay:10.37,2013-02-07 17:44:00,
2013-02-07 12:49:00,28.7,18.4,30.28,ENE,67,5.0,11.0,65,0.00,OVC,,0.00,WeatherDisplay:10.37,2013-02-07 17:49:00,
2013-02-07 12:54:00,28.4,18.2,30.27,NE,44,5.0,10.0,65,0.00,OVC,,0.00,WeatherDisplay:10.37,2013-02-07 17:54:00,
2013-02-07 12:59:00,28.3,18.0,30.27,NE,47,3.0,6.0,65,0.00,OVC,,0.00,WeatherDisplay:10.37,2013-02-07 17:59:00,
2013-02-07 13:04:00,28.4,18.5,30.26,NE,37,5.5,10.4,66,0.00,OVC,,0.00,WeatherDisplay:10.37,2013-02-07 18:04:00,
2013-02-07 13:09:00,28.4,18.1,30.26,NE,56,3.8,8.1,65,0.00,OVC,,0.00,WeatherDisplay:10.37,2013-02-07 18:09:00,
2013-02-07 13:14:00,28.6,18.7,30.26,ENE,74,3.0,8.0,66,0.00,OVC,,0.00,WeatherDisplay:10.37,2013-02-07 18:14:00,
2013-02-07 13:19:00,28.8,18.5,30.25,ENE,78,5.0,8.0,65,0.00,OVC,,0.00,WeatherDisplay:10.37,2013-02-07 18:19:00,
2013-02-07 13:24:00,29.0,18.7,30.25,ENE,77,3.0,8.0,65,0.00,OVC,,0.00,WeatherDisplay:10.37,2013-02-07 18:24:00,
2013-02-07 13:29:00,29.1,18.4,30.25,ENE,76,3.0,5.0,64,0.00,OVC,,0.00,WeatherDisplay:10.37,2013-02-07 18:29:00,
2013-02-07 13:34:00,29.2,18.9,30.25,ENE,76,2.0,7.0,65,0.00,OVC,,0.00,WeatherDisplay:10.37,2013-02-07 18:34:00,
2013-02-07 13:39:00,29.4,19.1,30.24,ENE,67,3.0,10.0,65,0.00,OVC,,0.00,WeatherDisplay:10.37,2013-02-07 18:39:00,
2013-02-07 13:44:00,29.6,18.9,30.24,ENE,78,2.0,7.0,64,0.00,OVC,,0.00,WeatherDisplay:10.37,2013-02-07 18:44:00,
2013-02-07 13:49:00,29.7,18.6,30.24,ENE,73,6.0,8.0,63,0.00,OVC,,0.00,WeatherDisplay:10.37,2013-02-07 18:49:00,
2013-02-07 13:54:00,29.7,19.0,30.24,ENE,72,3.3,5.8,64,0.00,OVC,,0.00,WeatherDisplay:10.37,2013-02-07 18:54:00,
2013-02-07 13:59:00,29.9,19.2,30.24,East,79,3.0,5.0,64,0.00,OVC,,0.00,WeatherDisplay:10.37,2013-02-07 18:59:00,
2013-02-07 14:04:00,30.1,19.4,30.23,ENE,76,2.8,3.5,64,0.00,OVC,,0.00,WeatherDisplay:10.37,2013-02-07 19:04:00,
2013-02-07 14:09:00,30.3,19.2,30.23,East,86,3.5,3.5,63,0.00,OVC,,0.00,WeatherDisplay:10.37,2013-02-07 19:09:00,
2013-02-07 14:14:00,30.3,19.2,30.23,ENE,64,6.0,10.0,63,0.00,OVC,,0.00,WeatherDisplay:10.37,2013-02-07 19:14:00,
2013-02-07 14:19:00,30.2,19.1,30.23,NE,56,2.0,12.0,63,0.00,OVC,,0.00,WeatherDisplay:10.37,2013-02-07 19:19:00,
2013-02-07 14:24:00,30.2,19.1,30.22,East,84,4.9,8.1,63,0.00,OVC,,0.00,WeatherDisplay:10.37,2013-02-07 19:24:00,
2013-02-07 14:29:00,30.2,19.1,30.22,ENE,66,5.7,10.4,63,0.00,OVC,,0.00,WeatherDisplay:10.37,2013-02-07 19:29:00,
2013-02-07 14:34:00,30.3,19.5,30.22,ENE,58,8.0,13.0,64,0.00,OVC,,0.00,WeatherDisplay:10.37,2013-02-07 19:34:00,
2013-02-07 14:39:00,30.4,19.7,30.22,NE,56,1.9,4.6,64,0.00,OVC,,0.00,WeatherDisplay:10.37,2013-02-07 19:39:00,
2013-02-07 14:44:00,30.7,20.0,30.22,ENE,62,5.0,10.0,64,0.00,OVC,,0.00,WeatherDisplay:10.37,2013-02-07 19:44:00,
2013-02-07 14:49:00,30.8,19.7,30.22,NNE,21,2.6,8.1,63,0.00,OVC,,0.00,WeatherDisplay:10.37,2013-02-07 19:49:00,
2013-02-07 14:54:00,30.7,19.6,30.22,ENE,59,7.0,12.0,63,0.00,OVC,,0.00,WeatherDisplay:10.37,2013-02-07 19:54:00,
2013-02-07 14:59:00,30.3,19.6,30.22,ENE,70,5.0,9.0,64,0.00,OVC,,0.00,WeatherDisplay:10.37,2013-02-07 19:59:00,
2013-02-07 15:04:00,30.1,19.4,30.22,NE,55,6.6,11.5,64,0.00,OVC,,0.00,WeatherDisplay:10.37,2013-02-07 20:04:00,
2013-02-07 15:09:00,30.0,19.7,30.22,NNE,19,4.0,8.1,65,0.00,OVC,,0.00,WeatherDisplay:10.37,2013-02-07 20:09:00,
2013-02-07 15:14:00,29.8,19.1,30.22,ENE,71,7.0,9.0,64,0.00,OVC,,0.00,WeatherDisplay:10.37,2013-02-07 20:14:00,
2013-02-07 15:19:00,29.7,19.4,30.22,ENE,64,5.0,8.0,65,0.00,OVC,,0.00,WeatherDisplay:10.37,2013-02-07 20:19:00,
2013-02-07 15:24:00,29.7,19.4,30.21,NE,56,5.0,10.0,65,0.00,OVC,,0.00,WeatherDisplay:10.37,2013-02-07 20:24:00,
2013-02-07 15:29:00,29.7,19.7,30.21,NE,55,2.0,8.0,66,0.00,OVC,,0.00,WeatherDisplay:10.37,2013-02-07 20:29:00,
2013-02-07 15:34:00,29.7,19.4,30.21,ENE,60,5.7,6.9,65,0.00,OVC,,0.00,WeatherDisplay:10.37,2013-02-07 20:34:00,
2013-02-07 15:39:00,29.8,19.8,30.21,ENE,73,1.0,5.0,66,0.00,OVC,,0.00,WeatherDisplay:10.37,2013-02-07 20:39:00,
2013-02-07 15:44:00,29.8,19.5,30.21,ENE,71,5.0,8.0,65,0.00,OVC,,0.00,WeatherDisplay:10.37,2013-02-07 20:44:00,
2013-02-07 15:49:00,29.8,19.5,30.21,ENE,72,1.3,5.8,65,0.00,OVC,,0.00,WeatherDisplay:10.37,2013-02-07 20:49:00,
2013-02-07 15:54:00,29.8,19.8,30.20,East,92,4.0,5.8,66,0.00,OVC,,0.00,WeatherDisplay:10.37,2013-02-07 20:54:00,
2013-02-07 15:59:00,29.7,19.4,30.20,ENE,71,2.4,9.2,65,0.00,OVC,,0.00,WeatherDisplay:10.37,2013-02-07 20:59:00,
2013-02-07 16:04:00,29.6,19.6,30.21,NE,53,5.3,10.4,66,0.00,OVC,,0.00,WeatherDisplay:10.37,2013-02-07 21:04:00,
2013-02-07 16:09:00,29.6,19.6,30.20,NE,44,5.2,11.5,66,0.00,OVC,,0.00,WeatherDisplay:10.37,2013-02-07 21:09:00,
2013-02-07 16:14:00,29.6,19.6,30.20,ENE,59,5.0,7.0,66,0.00,OVC,,0.00,WeatherDisplay:10.37,2013-02-07 21:14:00,
2013-02-07 16:19:00,29.5,19.5,30.20,NE,40,8.8,12.7,66,0.00,OVC,,0.00,WeatherDisplay:10.37,2013-02-07 21:19:00,
2013-02-07 16:24:00,29.4,19.4,30.20,NE,54,2.0,6.0,66,0.00,OVC,,0.00,WeatherDisplay:10.37,2013-02-07 21:24:00,
2013-02-07 16:29:00,29.4,19.4,30.20,ENE,67,3.9,5.8,66,0.00,OVC,,0.00,WeatherDisplay:10.37,2013-02-07 21:29:00,
2013-02-07 16:34:00,29.4,19.4,30.19,ENE,60,6.0,10.0,66,0.00,OVC,,0.00,WeatherDisplay:10.37,2013-02-07 21:34:00,
2013-02-07 16:39:00,29.3,19.4,30.19,ENE,60,3.0,8.0,66,0.00,OVC,,0.00,WeatherDisplay:10.37,2013-02-07 21:39:00,
2013-02-07 16:44:00,29.3,19.7,30.19,ENE,67,4.1,4.1,67,0.00,OVC,,0.00,WeatherDisplay:10.37,2013-02-07 21:44:00,
2013-02-07 16:49:00,29.3,19.7,30.19,ENE,62,5.0,7.0,67,0.00,OVC,,0.00,WeatherDisplay:10.37,2013-02-07 21:49:00,
2013-02-07 16:54:00,29.3,19.7,30.19,ENE,59,5.8,11.5,67,0.00,OVC,,0.00,WeatherDisplay:10.37,2013-02-07 21:54:00,
2013-02-07 16:59:00,29.2,19.6,30.19,ENE,57,3.2,10.4,67,0.00,OVC,,0.00,WeatherDisplay:10.37,2013-02-07 21:59:00,
2013-02-07 17:04:00,29.1,19.5,30.19,East,86,2.3,10.4,67,0.00,OVC,,0.00,WeatherDisplay:10.37,2013-02-07 22:04:00,
2013-02-07 17:09:00,29.0,19.4,30.18,NE,36,3.8,9.2,67,0.00,OVC,,0.00,WeatherDisplay:10.37,2013-02-07 22:09:00,
2013-02-07 17:14:00,29.0,19.4,30.18,East,88,5.1,9.2,67,0.00,OVC,,0.00,WeatherDisplay:10.37,2013-02-07 22:14:00,
2013-02-07 17:19:00,28.9,19.7,30.19,ENE,78,5.5,10.4,68,0.00,OVC,,0.00,WeatherDisplay:10.37,2013-02-07 22:19:00,
2013-02-07 17:24:00,28.9,19.7,30.18,NE,51,3.2,11.5,68,0.00,OVC,,0.00,WeatherDisplay:10.37,2013-02-07 22:24:00,
2013-02-07 17:29:00,28.8,19.6,30.18,East,86,5.4,8.1,68,0.00,OVC,,0.00,WeatherDisplay:10.37,2013-02-07 22:29:00,
2013-02-07 17:34:00,28.8,19.6,30.18,ENE,77,4.4,8.1,68,0.00,OVC,,0.00,WeatherDisplay:10.37,2013-02-07 22:34:00,
2013-02-07 17:39:00,28.7,19.5,30.18,East,82,4.2,10.4,68,0.00,OVC,,0.00,WeatherDisplay:10.37,2013-02-07 22:39:00,
2013-02-07 17:44:00,28.7,19.5,30.19,East,80,5.1,10.4,68,0.00,OVC,,0.00,WeatherDisplay:10.37,2013-02-07 22:44:00,
2013-02-07 17:49:00,28.7,19.5,30.18,ENE,64,5.3,8.1,68,0.00,OVC,,0.00,WeatherDisplay:10.37,2013-02-07 22:49:00,
2013-02-07 17:54:00,28.6,19.4,30.18,East,86,3.9,5.8,68,0.00,OVC,,0.00,WeatherDisplay:10.37,2013-02-07 22:54:00,
2013-02-07 17:59:00,28.6,19.4,30.19,ENE,61,4.0,8.1,68,0.00,OVC,,0.00,WeatherDisplay:10.37,2013-02-07 22:59:00,
2013-02-07 18:04:00,28.6,19.4,30.19,NNE,28,5.7,6.9,68,0.00,OVC,,0.00,WeatherDisplay:10.37,2013-02-07 23:04:00,
2013-02-07 18:09:00,28.5,19.3,30.19,East,92,4.3,10.4,68,0.00,OVC,,0.00,WeatherDisplay:10.37,2013-02-07 23:09:00,
2013-02-07 18:14:00,28.5,19.3,30.18,NE,52,4.4,6.9,68,0.00,OVC,,0.00,WeatherDisplay:10.37,2013-02-07 23:14:00,
2013-02-07 18:19:00,28.5,18.9,30.18,ENE,61,7.1,11.5,67,0.00,OVC,,0.00,WeatherDisplay:10.37,2013-02-07 23:19:00,
2013-02-07 18:24:00,28.5,19.3,30.18,NE,51,4.8,8.1,68,0.00,OVC,,0.00,WeatherDisplay:10.37,2013-02-07 23:24:00,
2013-02-07 18:29:00,28.5,19.3,30.18,NE,48,4.9,10.4,68,0.00,OVC,,0.00,WeatherDisplay:10.37,2013-02-07 23:29:00,
2013-02-07 18:34:00,28.5,19.3,30.18,ENE,57,5.2,11.0,68,0.00,OVC,,0.00,WeatherDisplay:10.37,2013-02-07 23:34:00,
2013-02-07 18:39:00,28.4,19.2,30.18,NE,55,3.7,5.8,68,0.00,OVC,,0.00,WeatherDisplay:10.37,2013-02-07 23:39:00,
2013-02-07 18:44:00,28.4,19.2,30.18,ENE,65,5.4,11.5,68,0.00,OVC,,0.00,WeatherDisplay:10.37,2013-02-07 23:44:00,
2013-02-07 18:49:00,28.4,19.2,30.18,ENE,77,2.0,5.8,68,0.00,OVC,,0.00,WeatherDisplay:10.37,2013-02-07 23:49:00,
2013-02-07 18:54:00,28.4,19.2,30.17,NE,36,7.4,10.4,68,0.00,OVC,,0.00,WeatherDisplay:10.37,2013-02-07 23:54:00,
2013-02-07 18:59:00,28.4,19.2,30.17,East,84,4.5,11.5,68,0.00,OVC,,0.00,WeatherDisplay:10.37,2013-02-07 23:59:00,
2013-02-07 19:04:00,28.4,19.2,30.17,ENE,57,5.4,12.7,68,0.00,OVC,,0.00,WeatherDisplay:10.37,2013-02-08 00:04:00,
2013-02-07 19:09:00,28.5,19.3,30.17,NE,41,2.8,5.8,68,0.00,OVC,,0.00,WeatherDisplay:10.37,2013-02-08 00:09:00,
2013-02-07 19:14:00,28.5,19.3,30.17,East,81,4.9,9.2,68,0.00,OVC,,0.00,WeatherDisplay:10.37,2013-02-08 00:14:00,
2013-02-07 19:19:00,28.5,19.3,30.16,East,96,3.1,4.6,68,0.00,OVC,,0.00,WeatherDisplay:10.37,2013-02-08 00:19:00,
2013-02-07 19:24:00,28.4,19.2,30.16,ENE,70,4.1,6.9,68,0.00,OVC,,0.00,WeatherDisplay:10.37,2013-02-08 00:24:00,
2013-02-07 19:29:00,28.5,19.3,30.16,NE,45,4.2,6.9,68,0.00,OVC,,0.00,WeatherDisplay:10.37,2013-02-08 00:29:00,
2013-02-07 19:34:00,28.5,19.3,30.16,ENE,69,3.2,5.8,68,0.00,OVC,,0.00,WeatherDisplay:10.37,2013-02-08 00:34:00,
2013-02-07 19:39:00,28.5,19.3,30.16,ENE,76,7.3,11.5,68,0.00,OVC,,0.00,WeatherDisplay:10.37,2013-02-08 00:39:00,
2013-02-07 19:44:00,28.5,19.3,30.16,NE,53,3.9,8.1,68,0.00,OVC,,0.00,WeatherDisplay:10.37,2013-02-08 00:44:00,
2013-02-07 19:49:00,28.5,19.3,30.16,ENE,60,6.1,9.2,68,0.00,OVC,,0.00,WeatherDisplay:10.37,2013-02-08 00:49:00,
2013-02-07 19:55:00,28.6,19.4,30.15,East,84,4.7,9.2,68,0.00,OVC,,0.00,WeatherDisplay:10.37,2013-02-08 00:55:00,
2013-02-07 20:00:00,28.6,19.4,30.15,ENE,59,3.7,9.2,68,0.00,OVC,,0.00,WeatherDisplay:10.37,2013-02-08 01:00:00,
2013-02-07 20:05:00,28.5,19.3,30.15,East,80,5.6,6.9,68,0.00,OVC,,0.00,WeatherDisplay:10.37,2013-02-08 01:05:00,
2013-02-07 20:10:00,28.4,19.5,30.14,ENE,71,4.6,6.9,69,0.00,OVC,,0.00,WeatherDisplay:10.37,2013-02-08 01:10:00,
2013-02-07 20:15:00,28.2,19.3,30.14,ENE,74,6.1,11.5,69,0.00,OVC,,0.00,WeatherDisplay:10.37,2013-02-08 01:15:00,
2013-02-07 20:20:00,28.0,19.5,30.14,ENE,71,6.5,11.5,70,0.00,OVC,,0.00,WeatherDisplay:10.37,2013-02-08 01:20:00,
2013-02-07 20:25:00,27.9,19.4,30.14,ENE,63,3.9,6.9,70,0.00,OVC,,0.00,WeatherDisplay:10.37,2013-02-08 01:25:00,
2013-02-07 20:30:00,27.8,19.3,30.13,ENE,64,4.7,8.1,70,0.00,OVC,,0.00,WeatherDisplay:10.37,2013-02-08 01:30:00,
2013-02-07 20:35:00,27.7,19.2,30.13,East,80,5.5,12.7,70,0.00,OVC,,0.00,WeatherDisplay:10.37,2013-02-08 01:35:00,
2013-02-07 20:40:00,27.6,19.4,30.13,NE,55,5.9,9.2,71,0.00,OVC,,0.00,WeatherDisplay:10.37,2013-02-08 01:40:00,
2013-02-07 20:45:00,27.6,19.4,30.12,ENE,57,4.3,8.1,71,0.00,OVC,,0.00,WeatherDisplay:10.37,2013-02-08 01:45:00,
2013-02-07 20:50:00,27.5,19.3,30.12,East,98,4.8,9.2,71,0.00,OVC,,0.00,WeatherDisplay:10.37,2013-02-08 01:50:00,
2013-02-07 20:55:00,27.4,19.2,30.11,ENE,57,6.5,11.5,71,0.00,OVC,,0.00,WeatherDisplay:10.37,2013-02-08 01:55:00,
2013-02-07 21:00:00,27.4,19.6,30.11,ENE,77,5.7,11.5,72,0.00,OVC,,0.00,WeatherDisplay:10.37,2013-02-08 02:00:00,
2013-02-07 21:05:00,27.3,19.5,30.10,NNE,24,2.9,6.9,72,0.00,OVC,,0.00,WeatherDisplay:10.37,2013-02-08 02:05:00,
2013-02-07 21:10:00,27.3,19.5,30.10,ENE,74,4.3,9.2,72,0.00,OVC,,0.00,WeatherDisplay:10.37,2013-02-08 02:10:00,
2013-02-07 21:15:00,27.3,19.5,30.09,East,83,4.5,8.1,72,0.00,OVC,,0.00,WeatherDisplay:10.37,2013-02-08 02:15:00,
2013-02-07 21:20:00,27.3,19.5,30.09,NE,41,6.1,11.5,72,0.00,OVC,,0.00,WeatherDisplay:10.37,2013-02-08 02:20:00,
2013-02-07 21:25:00,27.3,19.5,30.08,ESE,109,4.9,11.5,72,0.00,OVC,,0.00,WeatherDisplay:10.37,2013-02-08 02:25:00,
2013-02-07 21:30:00,27.2,19.7,30.08,ENE,65,4.3,8.1,73,0.00,OVC,,0.00,WeatherDisplay:10.37,2013-02-08 02:30:00,
2013-02-07 21:35:00,27.2,19.4,30.08,ENE,69,4.9,10.4,72,0.00,OVC,,0.00,WeatherDisplay:10.37,2013-02-08 02:35:00,
2013-02-07 21:40:00,27.2,19.4,30.07,NE,49,2.8,8.1,72,0.00,OVC,,0.00,WeatherDisplay:10.37,2013-02-08 02:40:00,
2013-02-07 21:45:00,27.1,19.6,30.08,East,88,4.4,8.1,73,0.00,OVC,,0.00,WeatherDisplay:10.37,2013-02-08 02:45:00,
2013-02-07 21:50:00,27.1,19.6,30.07,ENE,68,5.3,11.5,73,0.00,OVC,,0.00,WeatherDisplay:10.37,2013-02-08 02:50:00,
2013-02-07 21:55:00,27.1,19.6,30.06,ENE,75,5.1,9.2,73,0.00,OVC,,0.00,WeatherDisplay:10.37,2013-02-08 02:55:00,
2013-02-07 22:00:00,27.0,19.5,30.06,ENE,58,4.8,10.4,73,0.00,OVC,,0.00,WeatherDisplay:10.37,2013-02-08 03:00:00,
2013-02-07 22:05:00,27.0,19.5,30.06,ENE,75,4.5,10.4,73,0.00,OVC,,0.00,WeatherDisplay:10.37,2013-02-08 03:05:00,
2013-02-07 22:10:00,27.0,19.5,30.06,NE,55,3.5,8.1,73,0.00,OVC,,0.00,WeatherDisplay:10.37,2013-02-08 03:10:00,
2013-02-07 22:15:00,27.0,19.5,30.06,ENE,71,1.5,8.1,73,0.00,OVC,,0.00,WeatherDisplay:10.37,2013-02-08 03:15:00,
2013-02-07 22:20:00,26.9,19.7,30.06,ENE,57,4.7,9.2,74,0.00,OVC,,0.00,WeatherDisplay:10.37,2013-02-08 03:20:00,
2013-02-07 22:25:00,26.9,19.7,30.07,NE,52,2.7,3.5,74,0.00,OVC,,0.00,WeatherDisplay:10.37,2013-02-08 03:25:00,
2013-02-07 22:30:00,26.9,19.7,30.07,ENE,70,2.4,5.8,74,0.00,OVC,,0.00,WeatherDisplay:10.37,2013-02-08 03:30:00,
2013-02-07 22:35:00,26.9,19.7,30.07,ENE,60,1.6,3.5,74,0.00,OVC,,0.00,WeatherDisplay:10.37,2013-02-08 03:35:00,
2013-02-07 22:40:00,26.9,20.0,30.07,NE,52,2.3,4.6,75,0.00,OVC,,0.00,WeatherDisplay:10.37,2013-02-08 03:40:00,
2013-02-07 22:45:00,26.8,19.9,30.07,ENE,76,2.2,3.5,75,0.00,OVC,,0.00,WeatherDisplay:10.37,2013-02-08 03:45:00,
2013-02-07 22:50:00,26.8,20.2,30.06,NE,46,5.6,6.0,76,0.00,OVC,,0.00,WeatherDisplay:10.37,2013-02-08 03:50:00,
2013-02-07 22:55:00,26.8,20.2,30.06,East,80,2.2,4.6,76,0.00,OVC,,0.00,WeatherDisplay:10.37,2013-02-08 03:55:00,
2013-02-07 23:00:00,26.8,20.2,30.06,NE,47,1.3,3.5,76,0.00,OVC,,0.00,WeatherDisplay:10.37,2013-02-08 04:00:00,
2013-02-07 23:05:00,26.7,20.1,30.06,NE,44,3.2,5.8,76,0.00,OVC,,0.00,WeatherDisplay:10.37,2013-02-08 04:05:00,
2013-02-07 23:10:00,26.6,20.4,30.06,ENE,64,4.6,9.2,77,0.00,OVC,,0.00,WeatherDisplay:10.37,2013-02-08 04:10:00,
2013-02-07 23:15:00,26.6,20.4,30.06,NE,36,3.2,5.8,77,0.00,OVC,,0.00,WeatherDisplay:10.37,2013-02-08 04:15:00,
2013-02-07 23:20:00,26.5,20.6,30.06,ENE,57,2.7,2.7,78,0.00,OVC,,0.00,WeatherDisplay:10.37,2013-02-08 04:20:00,
2013-02-07 23:25:00,26.5,20.6,30.05,NE,56,5.0,8.1,78,0.00,OVC,,0.00,WeatherDisplay:10.37,2013-02-08 04:25:00,
2013-02-07 23:30:00,26.5,20.9,30.05,ENE,65,4.0,5.8,79,0.00,OVC,,0.00,WeatherDisplay:10.37,2013-02-08 04:30:00,
2013-02-07 23:35:00,26.4,20.8,30.05,ENE,57,2.5,3.5,79,0.00,OVC,,0.00,WeatherDisplay:10.37,2013-02-08 04:35:00,
2013-02-07 23:40:00,26.3,20.7,30.05,ENE,63,2.6,6.9,79,0.00,OVC,,0.00,WeatherDisplay:10.37,2013-02-08 04:40:00,
2013-02-07 23:46:00,26.3,20.7,30.05,ENE,61,2.4,3.5,79,0.00,OVC,,0.00,WeatherDisplay:10.37,2013-02-08 04:46:00,
2013-02-07 23:51:00,26.3,21.0,30.05,NE,51,2.7,3.5,80,0.00,OVC,,0.00,WeatherDisplay:10.37,2013-02-08 04:51:00,
2013-02-07 23:56:00,26.3,21.0,30.05,NE,52,3.1,8.1,80,0.00,OVC,,0.00,WeatherDisplay:10.37,2013-02-08 04:56:00,